Home > Weather > Palikir > Past weeks

Flag for Micronesia Weather for the Past 2 Weeks in Palikir, Pohnpei, Micronesia

Now
88 °F

Mostly cloudy.


Feels Like: 101 °F
Forecast: 80 / 86 °F
Wind: 9 mph from East

Location: Pohnpei

Current Time: May 6, 2016 at 3:29:04 PM

Latest Report: May 6, 2016 at 2:52 PM


Visibility: 15 mi

Pressure: 29.80 "Hg

Humidity: 72%

Dew Point: 78 °F

Location of PalikirLocation

Historic Weather in Palikir — Graph

°F

Palikir Temperature Yesterday

Maximum temperature yesterday: 89 °F (at 11:55 AM)
Minimum temperature yesterday: 82 °F (at 12:56 AM)
Average temperature yesterday: 84 °F

High & Low Weather Summary for the Past Weeks

 TemperatureHumidityPressure
High89 °F (Apr 28, 12:51 PM)96% (Apr 21, 2:57 PM)29.93 "Hg (Apr 21, 2:57 PM)
Low76 °F (May 1, 11:54 PM)54% (May 2, 1:52 PM)29.79 "Hg (Apr 22, 3:53 PM)
Average83 °F81%29.86 "Hg
* Reported Apr 21 1:58 PM — May 6 1:53 PM, Palikir, Weather by CustomWeather, © 2016

Note: Actual official high and low records may vary slightly from our data, if they occured in-between our weather recording intervals... More about our weather records

Advertising

Palikir Weather History for the Previous 24 Hours

Scroll right to see more
 ConditionsComfort  
Time TempWeatherWind HumidityBarometerVisibility
1:53 PM
Fri, May 6
88 °FMostly cloudy.9 mph73%29.81 "Hg15 mi
12:52 PM87 °FMostly cloudy.7 mph83%29.83 "Hg15 mi
11:56 AM87 °FMostly cloudy.5 mph80%29.85 "Hg15 mi
10:52 AM86 °FCloudy.5 mph80%29.88 "Hg15 mi
7:51 AM82 °FPartly sunny.3 mph87%29.86 "Hg15 mi
6:53 AM81 °FBroken clouds.5 mph92%29.85 "Hg15 mi
5:52 AM80 °FMostly cloudy.7 mph92%29.83 "Hg15 mi
4:52 AM80 °FMostly cloudy.5 mph92%29.82 "Hg15 mi
3:52 AM81 °FOvercast.7 mph83%29.82 "Hg15 mi
2:53 AM82 °FPartly cloudy.5 mph79%29.82 "Hg15 mi
1:52 AM82 °FPassing clouds.8 mph79%29.84 "Hg15 mi
12:54 AM83 °FPassing clouds.8 mph76%29.86 "Hg15 mi
11:52 PM
Thu, May 5
83 °FPassing clouds.7 mph81%29.89 "Hg15 mi
10:50 PM83 °FMostly cloudy.12 mph76%29.90 "Hg15 mi
9:55 PM83 °FMostly cloudy.9 mph81%29.90 "Hg15 mi
8:53 PM83 °FMostly cloudy.8 mph81%29.90 "Hg15 mi
7:53 PM82 °FMostly cloudy.8 mph81%29.88 "Hg15 mi
6:53 PM82 °FSprinkles. Mostly cloudy.13 mph86%29.86 "Hg15 mi
5:58 PM84 °FMore clouds than sun.12 mph77%29.84 "Hg15 mi
4:52 PM85 °FMore clouds than sun.12 mph74%29.83 "Hg15 mi
3:53 PM85 °FBroken clouds.7 mph74%29.83 "Hg15 mi
Weather by CustomWeather, © 2016

See weather overviewHow to use our weather pages